sat.trackr.live / text

‹ back to catalog

2022-023F

NORAD 51951 · 2022-023F

PAYLOAD ACTIVE UNKNOWN

§ Identity

Operator
Country
PRC
Launch date
2022-03-05
Launch site
XICLF
Launch vehicle
Mass (kg)
RCS (m²)

External: N2YO · Heavens-Above · Gunter

§ Orbital elements

Epoch: 2026-05-25T03:41:08.226816Z

Period
94.86 min
Inclination
63.4472°
Eccentricity
0.0128327
Mean motion
15.18000810 rev/d
Perigee alt
423.5 km
Apogee alt
600.3 km
Semi-major
6,890.0 km
B*
6.9948e-4
RAAN
351.7890°
Arg perigee
343.6265°
Mean anomaly
16.0718°
Rev number
23,421

§ Raw data

2022-023F1 51951U 22023F   26145.15356744  .00017549  00000+0  69948-3 0  99972 51951  63.4472 351.7890 0128327 343.6265  16.0718 15.18000810234213

JSON: /api/v1/satellites/51951 · /tle

For live sub-satellite position, see the globe view (requires WebGL).

§ Visibility from observer

Set your observer location to see the next 7 days of passes ≥ 10°. The values pass through the URL so the page stays shareable.

No JS? Fill the form by hand. The geolocation button needs JavaScript.

§ Radio — SatNOGS DB

ModeDescriptionDownlinkUplink
FM Telemetry 402.792 MHz

1 transmitter · refreshed weekly from db.satnogs.org